[Iaude] MPEC T24: 2023 TL [a=2.28,e=0.64,i=2.3,H=24.6]

mpec at marsden.cfa.harvard.edu mpec at marsden.cfa.harvard.edu
Wed Oct 4 21:03:44 EDT 2023


M.P.E.C. 2023-T24                               Issued 2023 October 5, 01:02 UT

     The Minor Planet Electronic Circulars contain information on unusual
         minor planets, routine data on comets and natural satellites,
         and occasional editorial announcements.  They are published
    on behalf of Division F of the International Astronomical Union by the
          Minor Planet Center, Smithsonian Astrophysical Observatory,
                          Cambridge, MA 02138, U.S.A.
			  
             Prepared using the Tamkin Foundation Computer Network

                              MPC at CFA.HARVARD.EDU
            URL https://www.minorplanetcenter.net/    ISSN 1523-6714

                                    2023 TL                                     


Observations:
     K23T00L  C2023 10 03.39958922 33 36.777+22 18 18.04         19.59GVET024F51
     K23T00L  C2023 10 03.40928522 33 30.647+22 19 54.31         20.35GVET024F51
     K23T00L  C2023 10 03.40934922 33 30.618+22 19 54.79         19.96GVET024F52
     K23T00L  C2023 10 03.41903722 33 24.503+22 21 30.52         20.83GVET024F51
     K23T00L  C2023 10 03.42054222 33 23.514+22 21 45.82         19.74GVET024F52
     K23T00L  C2023 10 03.42877522 33 18.353+22 23 07.27         19.38GVET024F51
     K23T00L  C2023 10 03.43177322 33 16.460+22 23 37.00         19.21GVET024F52
     K23T00L  C2023 10 03.44296422 33 09.401+22 25 28.06         19.63GVET024F52
     K23T00L* C2023 10 04.44422822 21 48.625+25 40 12.88         19.67iXET024F51
     K23T00L  C2023 10 04.45390722 21 40.198+25 42 19.58         19.11iXET024F51
     K23T00L  C2023 10 04.46359322 21 31.790+25 44 26.21         18.62iXET024F51
     K23T00L hC2023 10 04.80194022 16 53.01 +27 03 18.3          19.6 GVET024L01
     K23T00L hC2023 10 04.80343122 16 51.56 +27 03 40.6          19.6 GVET024L01
     K23T00L hC2023 10 04.80492022 16 50.09 +27 04 03.2          19.9 GVET024L01
     K23T00L hC2023 10 04.80640922 16 48.58 +27 04 25.5          19.4 GVET024L01
     K23T00L KB2023 10 04.83255622 16 25.19 +27 10 57.4          19.3 GVET024I93
     K23T00L KB2023 10 04.84048122 16 17.26 +27 12 57.6          18.4 GVET024I93
     K23T00L KB2023 10 04.84841322 16 09.32 +27 14 58.2          18.5 GVET024I93
     K23T00L KC2023 10 04.88341922 15 31.64 +27 23 53.3          18.2 GVET024104
     K23T00L KC2023 10 04.88649422 15 28.50 +27 24 39.7          18.1 GVET024104
     K23T00L KC2023 10 04.88956922 15 25.34 +27 25 26.8          18.1 GVET024104
     K23T00L KC2023 10 04.89454422 15 22.52 +27 26 45.2          18.9 GXET024958
     K23T00L KC2023 10 04.90417922 15 12.59 +27 29 12.8          18.9 GXET024958

Observer details:
104 San Marcello Pistoiese.  Observers P. Bacci, M. Maestripieri.  Measurers
    P. Bacci, L. Tesi, G. Fagioli.  0.60-m F4 Reflector + CCD.
958 Observatoire de Dax.  Observers P. Dupouy, J. B. de Vanssay.  Measurer P.
    Dupouy.  0.43-m f/2.7 Reflector + CCD.
F51 Pan-STARRS 1, Haleakala.  Observers J. Bulger, K. Chambers, T. Lowe, P.
    Minguez, A. Schultz, I. Smith.  Measurers S. Chastel, J. Fairlamb, M.
    Huber, Y. Ramanjooloo, R. Wainscoat, R. Weryk, K. Chambers, T. de Boer, J.
    Bulger, H. Gao, C.-C. Lin, T. Lowe, E. Magnier, P. Minguez, A. Schultz, I.
    Smith.  1.8-m Ritchey-Chretien + CCD.
F52 Pan-STARRS 2, Haleakala.  Observers J. Bulger, K. Chambers, T. Lowe, P.
    Minguez, A. Schultz, I. Smith.  Measurers S. Chastel, J. Fairlamb, M.
    Huber, Y. Ramanjooloo, R. Wainscoat, R. Weryk.  1.8-m Ritchey-Chretien +
    CCD.
I93 St Pardon de Conques.  Observer F. Losse.  0.40-m f/3.7 reflector + CMO.
L01 Visnjan Observatory, Tican.  Observer K. Korlevic.  1.0-m f/2.9 reflector
    + CCD.

Orbital elements:
2023 TL                                                  Earth MOID = 0.0209 AU
Epoch 2023 Sept. 13.0 TT = JDT 2460200.5                Veres                   
M 341.53800              (2000.0)            P               Q                  
n   0.28707445     Peri.  204.08294     +0.32215970     -0.94624516             
a   2.2758293      Node   227.13751     +0.87483380     +0.30922207             
e   0.6372109      Incl.    2.25693     +0.36177196     +0.09487782             
P   3.43           H   24.61          G   0.15           U   9                  
Residuals in seconds of arc
231003 F51  0.1+  0.1-    231004 F51  0.1-  0.0     231004 I93  0.1+  0.1-
231003 F51  0.1-  0.1+    231004 F51  0.1+  0.1-    231004 104  0.0   0.2+
231003 F51  0.1+  0.3-    231004 L01  0.1-  0.0     231004 104  0.1+  0.2-
231003 F52  0.4-  0.1+    231004 L01  0.2+  0.1-    231004 104  0.0   0.2+
231003 F51  0.0   0.0     231004 L01  0.2+  0.1+    231004 958  0.4-  0.1+
231003 F52  0.0   0.0     231004 L01  0.3-  0.0     231004 958  0.4-  0.2+
231003 F52  0.0   0.1+    231004 I93  0.1-  0.0
231004 F51  0.0   0.1-    231004 I93  0.2-  0.1-

Ephemeris:
2023 TL                  a,e,i = 2.28, 0.64, 2                   q = 0.8256
Date    TT    R. A. (2000) Decl.     Delta      r    Elong.  Phase     V
2023 09 05    23 25 07.2 +05 40 41   0.3015  1.3019   164.9    11.6    23.3
...
2023 09 20    23 15 36.4 +09 05 42   0.1615  1.1624   166.9    11.3    21.7
...
2023 09 28    23 01 24.6 +13 37 25   0.09488 1.0909   158.1    20.1    20.7
...
2023 10 04    22 27 27.9 +24 06 59   0.04852 1.0396   142.8    35.6    19.6
2023 10 05    22 13 40.4 +27 54 49   0.04143 1.0313   137.8    40.6    19.4
2023 10 06    21 52 48.4 +33 02 50   0.03476 1.0231   131.1    47.5    19.2
...
2023 10 12    13 26 26.2 +33 17 26   0.02953 0.9761    40.7   138.2    23.5
...
2023 10 20    12 02 45.8 +07 50 06   0.08811 0.9203    29.4   147.9    27.2
...
2023 11 04    11 53 10.1 +00 02 59   0.2149  0.8462    42.6   127.5    26.4

M. P. C. Staff               (C) Copyright 2023 MPC           M.P.E.C. 2023-T24





More information about the Iaude mailing list